| time (UTC) | temp C | wind direction | speed KPH | gust KPH | rain 1hr cm | rain 24hr cm | rain mn cm | humidity % | barometer mb |
| 20260510190128 | 10 | 346 | 0.0 | 3.2 | 0.00 | 0.00 | 0.00 | 53 | 1052.5 |
| 20260510185110 | 10 | 101 | 0.0 | 3.2 | 0.00 | 0.00 | 0.00 | 53 | 1052.5 |
| 20260510184051 | 11 | 48 | 0.0 | 3.2 | 0.00 | 0.00 | 0.00 | 52 | 1052.7 |
| 20260510183059 | 11 | 0.0 | 0.0 | 0.00 | 0.00 | 0.00 | 51 | 1052.7 | |
| 20260510182105 | 11 | 300 | 0.0 | 3.2 | 0.00 | 0.00 | 0.00 | 50 | 1052.7 |
| 20260510181042 | 11 | 267 | 0.0 | 3.2 | 0.00 | 0.00 | 0.00 | 50 | 1052.5 |
| 20260510180026 | 11 | 170 | 0.0 | 3.2 | 0.00 | 0.00 | 0.00 | 50 | 1052.6 |
| 20260510175100 | 11 | 162 | 0.0 | 8.0 | 0.00 | 0.00 | 0.00 | 51 | 1052.5 |
| 20260510174252 | 11 | 286 | 0.0 | 3.2 | 0.00 | 0.00 | 0.00 | 51 | 1052.9 |
| 20260510173044 | 12 | 108 | 0.0 | 8.0 | 0.00 | 0.00 | 0.00 | 49 | 1052.8 |
| 20260510172056 | 12 | 0.0 | 0.0 | 0.00 | 0.00 | 0.00 | 52 | 1052.7 | |
| 20260510171027 | 12 | 0.0 | 0.0 | 0.00 | 0.00 | 0.00 | 47 | 1052.8 | |
| 20260510170157 | 12 | 105 | 0.0 | 8.0 | 0.00 | 0.00 | 0.00 | 48 | 1052.9 |
| 20260510165046 | 12 | 0.0 | 3.2 | 0.00 | 0.00 | 0.00 | 48 | 1053.1 | |
| 20260510164208 | 12 | 267 | 1.6 | 8.0 | 0.00 | 0.00 | 0.00 | 47 | 1053.0 |
| 20260510163058 | 13 | 316 | 1.6 | 12.9 | 0.00 | 0.00 | 0.00 | 50 | 1053.2 |
| 20260510162023 | 13 | 127 | 0.0 | 8.0 | 0.00 | 0.00 | 0.00 | 49 | 1053.2 |
| 20260510161227 | 13 | 24 | 4.8 | 12.9 | 0.00 | 0.00 | 0.00 | 50 | 1053.4 |
| 20260510160113 | 13 | 133 | 3.2 | 12.9 | 0.00 | 0.00 | 0.00 | 46 | 1053.4 |
| 20260510155138 | 12 | 88 | 1.6 | 8.0 | 0.00 | 0.00 | 0.00 | 50 | 1053.6 |
| 20260510154056 | 13 | 155 | 3.2 | 16.1 | 0.00 | 0.00 | 0.00 | 50 | 1053.7 |
| 20260510153119 | 13 | 0.0 | 0.0 | 0.00 | 0.00 | 0.00 | 48 | 1053.9 | |
| 20260510152037 | 13 | 287 | 1.6 | 12.9 | 0.00 | 0.00 | 0.00 | 47 | 1053.9 |
| 20260510151044 | 13 | 328 | 0.0 | 3.2 | 0.00 | 0.00 | 0.00 | 49 | 1054.1 |
| 20260510150156 | 13 | 0.0 | 0.0 | 0.00 | 0.00 | 0.00 | 48 | 1053.9 | |
| 20260510145026 | 13 | 148 | 0.0 | 8.0 | 0.00 | 0.00 | 0.00 | 47 | 1053.9 |
| 20260510144123 | 13 | 0.0 | 0.0 | 0.00 | 0.00 | 0.00 | 50 | 1054.0 | |
| 20260510143119 | 13 | 0.0 | 3.2 | 0.00 | 0.00 | 0.00 | 50 | 1054.2 | |
| 20260510142054 | 13 | 152 | 0.0 | 8.0 | 0.00 | 0.00 | 0.00 | 51 | 1054.3 |
| 20260510141056 | 13 | 347 | 0.0 | 3.2 | 0.00 | 0.00 | 0.00 | 50 | 1054.4 |
| 20260510135059 | 13 | 262 | 0.0 | 3.2 | 0.00 | 0.00 | 0.00 | 50 | 1054.6 |
| 20260510134025 | 13 | 329 | 0.0 | 8.0 | 0.00 | 0.00 | 0.00 | 50 | 1054.7 |
| 20260510133141 | 13 | 321 | 0.0 | 3.2 | 0.00 | 0.00 | 0.00 | 50 | 1054.8 |
| 20260510132105 | 12 | 0.0 | 3.2 | 0.00 | 0.00 | 0.00 | 47 | 1054.6 | |
| 20260510131050 | 12 | 129 | 4.8 | 16.1 | 0.00 | 0.00 | 0.00 | 49 | 1054.9 |
| 20260510130104 | 12 | 106 | 0.0 | 3.2 | 0.00 | 0.00 | 0.00 | 51 | 1054.9 |
| 20260510125024 | 12 | 68 | 1.6 | 8.0 | 0.00 | 0.00 | 0.00 | 52 | 1055.1 |
| 20260510124109 | 12 | 140 | 0.0 | 8.0 | 0.00 | 0.00 | 0.00 | 53 | 1055.2 |
| 20260510123026 | 12 | 121 | 1.6 | 12.9 | 0.00 | 0.00 | 0.00 | 53 | 1055.3 |
| 20260510122027 | 12 | 319 | 1.6 | 12.9 | 0.00 | 0.00 | 0.00 | 55 | 1055.3 |
| 20260510121214 | 12 | 314 | 0.0 | 12.9 | 0.00 | 0.00 | 0.00 | 57 | 1055.6 |
| 20260510120107 | 12 | 105 | 0.0 | 3.2 | 0.00 | 0.00 | 0.00 | 58 | 1055.6 |
| 20260510115040 | 12 | 285 | 0.0 | 12.9 | 0.00 | 0.00 | 0.00 | 57 | 1055.7 |
| 20260510114050 | 12 | 144 | 1.6 | 12.9 | 0.00 | 0.00 | 0.00 | 55 | 1055.6 |
| 20260510113023 | 12 | 313 | 4.8 | 24.1 | 0.00 | 0.00 | 0.00 | 57 | 1055.6 |
| 20260510112027 | 12 | 57 | 4.8 | 12.9 | 0.00 | 0.00 | 0.00 | 54 | 1055.9 |
| 20260510111040 | 12 | 246 | 3.2 | 8.0 | 0.00 | 0.00 | 0.00 | 58 | 1055.9 |
| 20260510110201 | 12 | 280 | 3.2 | 16.1 | 0.00 | 0.00 | 0.00 | 58 | 1055.9 |
| 20260510105045 | 12 | 67 | 6.4 | 20.9 | 0.00 | 0.00 | 0.00 | 59 | 1056.1 |
| 20260510104038 | 12 | 127 | 4.8 | 12.9 | 0.00 | 0.00 | 0.00 | 62 | 1056.3 |
| 20260510103109 | 12 | 351 | 3.2 | 16.1 | 0.00 | 0.00 | 0.00 | 62 | 1056.2 |
| 20260510102104 | 12 | 230 | 3.2 | 16.1 | 0.00 | 0.00 | 0.00 | 61 | 1056.3 |
| 20260510101131 | 12 | 78 | 3.2 | 8.0 | 0.00 | 0.00 | 0.00 | 61 | 1056.1 |
| 20260510100106 | 12 | 113 | 3.2 | 8.0 | 0.00 | 0.00 | 0.00 | 63 | 1056.3 |
| 20260510095049 | 11 | 294 | 1.6 | 12.9 | 0.00 | 0.00 | 0.00 | 65 | 1056.4 |
| 20260510094024 | 11 | 78 | 1.6 | 12.9 | 0.00 | 0.00 | 0.00 | 67 | 1056.3 |
| 20260510093057 | 11 | 33 | 0.0 | 3.2 | 0.00 | 0.00 | 0.00 | 68 | 1056.3 |
| 20260510092033 | 10 | 311 | 0.0 | 8.0 | 0.00 | 0.00 | 0.00 | 71 | 1056.5 |
| 20260510091054 | 10 | 233 | 3.2 | 12.9 | 0.00 | 0.00 | 0.00 | 73 | 1056.6 |
| 20260510090059 | 11 | 266 | 4.8 | 12.9 | 0.00 | 0.00 | 0.00 | 74 | 1056.8 |
| 20260510085031 | 11 | 81 | 3.2 | 12.9 | 0.00 | 0.00 | 0.00 | 73 | 1056.8 |
| 20260510084027 | 11 | 330 | 3.2 | 8.0 | 0.00 | 0.00 | 0.00 | 72 | 1056.9 |
| 20260510083059 | 11 | 90 | 3.2 | 12.9 | 0.00 | 0.00 | 0.00 | 73 | 1056.7 |
| 20260510082102 | 11 | 157 | 3.2 | 8.0 | 0.00 | 0.00 | 0.00 | 73 | 1056.8 |
| 20260510081137 | 10 | 79 | 0.0 | 3.2 | 0.00 | 0.00 | 0.00 | 74 | 1056.7 |
| 20260510080141 | 10 | 247 | 1.6 | 8.0 | 0.00 | 0.00 | 0.00 | 75 | 1056.9 |
| 20260510075040 | 10 | 94 | 0.0 | 3.2 | 0.00 | 0.00 | 0.00 | 76 | 1057.0 |
| 20260510074030 | 10 | 0.0 | 3.2 | 0.00 | 0.00 | 0.00 | 78 | 1056.9 | |
| 20260510073036 | 10 | 55 | 1.6 | 8.0 | 0.00 | 0.00 | 0.00 | 79 | 1056.9 |
| 20260510071530 | 10 | 272 | 1.6 | 8.0 | 0.00 | 0.00 | 0.00 | 79 | 1056.7 |
| 20260510070709 | 10 | 314 | 1.6 | 8.0 | 0.00 | 0.00 | 0.00 | 80 | 1056.6 |
| 20260510065532 | 10 | 91 | 1.6 | 16.1 | 0.00 | 0.00 | 0.00 | 81 | 1056.6 |
| 20260510064748 | 10 | 331 | 0.0 | 3.2 | 0.00 | 0.00 | 0.00 | 82 | 1056.6 |
| 20260510063530 | 10 | 342 | 1.6 | 8.0 | 0.00 | 0.00 | 0.00 | 83 | 1056.4 |
| 20260510062528 | 10 | 2 | 1.6 | 8.0 | 0.00 | 0.00 | 0.00 | 83 | 1056.5 |
| 20260510061711 | 9 | 307 | 1.6 | 8.0 | 0.00 | 0.00 | 0.00 | 84 | 1056.4 |
| 20260510060522 | 9 | 318 | 3.2 | 8.0 | 0.00 | 0.00 | 0.00 | 84 | 1056.3 |
| 20260510055555 | 9 | 324 | 0.0 | 8.0 | 0.00 | 0.00 | 0.00 | 85 | 1056.3 |
| 20260510054040 | 8 | 296 | 1.6 | 8.0 | 0.00 | 0.00 | 0.00 | 87 | 1056.4 |
| 20260510053028 | 8 | 330 | 1.6 | 8.0 | 0.00 | 0.00 | 0.00 | 88 | 1056.6 |
| 20260510052114 | 8 | 0.0 | 0.0 | 0.00 | 0.00 | 0.00 | 89 | 1056.4 | |
| 20260510051102 | 8 | 0.0 | 0.0 | 0.00 | 0.00 | 0.00 | 89 | 1056.3 | |
| 20260510050036 | 8 | 349 | 0.0 | 8.0 | 0.00 | 0.00 | 0.00 | 89 | 1056.3 |
| 20260510045056 | 8 | 0.0 | 0.0 | 0.00 | 0.00 | 0.00 | 90 | 1056.6 | |
| 20260510044028 | 8 | 0.0 | 0.0 | 0.00 | 0.00 | 0.00 | 90 | 1056.3 | |
| 20260510043259 | 7 | 0.0 | 0.0 | 0.00 | 0.00 | 0.00 | 90 | 1056.5 | |
| 20260510042036 | 7 | 0.0 | 0.0 | 0.00 | 0.00 | 0.00 | 90 | 1056.3 | |
| 20260510041038 | 7 | 0.0 | 0.0 | 0.00 | 0.00 | 0.00 | 91 | 1056.4 | |
| 20260510040038 | 7 | 0.0 | 0.0 | 0.00 | 0.00 | 0.00 | 92 | 1056.6 | |
| 20260510035043 | 7 | 0.0 | 0.0 | 0.00 | 0.00 | 0.00 | 92 | 1056.6 | |
| 20260510034028 | 7 | 0.0 | 0.0 | 0.00 | 0.00 | 0.00 | 92 | 1056.5 | |
| 20260510033035 | 7 | 0.0 | 0.0 | 0.00 | 0.00 | 0.00 | 91 | 1056.6 | |
| 20260510032107 | 7 | 0.0 | 0.0 | 0.00 | 0.00 | 0.00 | 91 | 1056.6 | |
| 20260510031025 | 7 | 0.0 | 0.0 | 0.00 | 0.00 | 0.00 | 91 | 1056.6 | |
| 20260510030142 | 7 | 0.0 | 0.0 | 0.00 | 0.00 | 0.00 | 91 | 1056.6 | |
| 20260510025100 | 8 | 0.0 | 0.0 | 0.00 | 0.00 | 0.00 | 91 | 1056.6 | |
| 20260510024027 | 8 | 0.0 | 0.0 | 0.00 | 0.00 | 0.00 | 92 | 1056.6 | |
| 20260510023104 | 8 | 0.0 | 0.0 | 0.00 | 0.00 | 0.00 | 91 | 1056.6 | |
| 20260510022101 | 8 | 0.0 | 0.0 | 0.00 | 0.00 | 0.00 | 91 | 1056.7 | |
| 20260510021105 | 8 | 0.0 | 0.0 | 0.00 | 0.00 | 0.00 | 91 | 1056.6 | |
| 20260510020052 | 8 | 0.0 | 0.0 | 0.00 | 0.00 | 0.00 | 91 | 1056.7 | |
| 20260510015037 | 8 | 0.0 | 0.0 | 0.00 | 0.00 | 0.00 | 91 | 1056.9 | |
| 20260510014229 | 8 | 0.0 | 0.0 | 0.00 | 0.00 | 0.00 | 91 | 1056.7 | |
| 20260510013052 | 8 | 0.0 | 0.0 | 0.00 | 0.00 | 0.00 | 91 | 1056.6 | |
| 20260510012221 | 8 | 0.0 | 0.0 | 0.00 | 0.00 | 0.00 | 91 | 1056.9 | |
| 20260510011024 | 8 | 0.0 | 0.0 | 0.00 | 0.00 | 0.00 | 90 | 1056.8 | |
| 20260510010116 | 8 | 0.0 | 0.0 | 0.00 | 0.00 | 0.00 | 90 | 1056.9 | |
| 20260510005156 | 8 | 0.0 | 0.0 | 0.00 | 0.00 | 0.00 | 89 | 1056.9 | |
| 20260510004051 | 8 | 0.0 | 0.0 | 0.00 | 0.00 | 0.00 | 89 | 1056.9 | |
| 20260510003029 | 8 | 0.0 | 0.0 | 0.00 | 0.00 | 0.00 | 88 | 1056.9 | |
| 20260510002045 | 8 | 0.0 | 0.0 | 0.00 | 0.00 | 0.00 | 88 | 1056.8 | |
| 20260510001201 | 8 | 0.0 | 0.0 | 0.00 | 0.00 | 0.00 | 87 | 1056.6 | |
| 20260509235042 | 8 | 0.0 | 0.0 | 0.00 | 0.00 | 0.00 | 86 | 1056.7 | |
| 20260509234037 | 8 | 0.0 | 0.0 | 0.00 | 0.00 | 0.00 | 85 | 1056.7 | |
| 20260509233028 | 9 | 0.0 | 0.0 | 0.00 | 0.00 | 0.00 | 85 | 1057.1 | |
| 20260509232102 | 9 | 0.0 | 0.0 | 0.00 | 0.00 | 0.00 | 84 | 1057.1 | |
| 20260509231106 | 9 | 0.0 | 0.0 | 0.00 | 0.00 | 0.00 | 84 | 1057.1 | |
| 20260509230156 | 10 | 0.0 | 0.0 | 0.00 | 0.00 | 0.00 | 83 | 1057.1 | |
| 20260509225027 | 10 | 0.0 | 0.0 | 0.00 | 0.00 | 0.00 | 83 | 1056.9 | |
| 20260509224024 | 10 | 0.0 | 0.0 | 0.00 | 0.00 | 0.00 | 83 | 1056.8 | |
| 20260509223036 | 10 | 0.0 | 0.0 | 0.00 | 0.00 | 0.00 | 83 | 1056.7 | |
| 20260509222036 | 10 | 0.0 | 0.0 | 0.00 | 0.00 | 0.00 | 83 | 1056.7 | |
| 20260509221021 | 10 | 0.0 | 0.0 | 0.00 | 0.00 | 0.00 | 81 | 1056.6 | |
| 20260509220036 | 10 | 0.0 | 3.2 | 0.00 | 0.00 | 0.00 | 80 | 1056.5 | |
| 20260509215029 | 10 | 0.0 | 0.0 | 0.00 | 0.00 | 0.00 | 74 | 1056.5 | |
| 20260509214108 | 11 | 0.0 | 0.0 | 0.00 | 0.00 | 0.00 | 67 | 1056.6 | |
| 20260509213041 | 11 | 0.0 | 3.2 | 0.00 | 0.00 | 0.00 | 62 | 1056.4 | |
| 20260509212102 | 12 | 338 | 1.6 | 12.9 | 0.00 | 0.00 | 0.00 | 57 | 1056.2 |
| 20260509211044 | 12 | 0.0 | 0.0 | 0.00 | 0.00 | 0.00 | 52 | 1056.1 | |
| 20260509210123 | 12 | 0.0 | 3.2 | 0.00 | 0.00 | 0.00 | 51 | 1056.1 | |
| 20260509205153 | 12 | 0.0 | 3.2 | 0.00 | 0.00 | 0.00 | 50 | 1055.7 | |
| 20260509204030 | 13 | 0.0 | 0.0 | 0.00 | 0.00 | 0.00 | 49 | 1055.7 | |
| 20260509203143 | 13 | 0.0 | 0.0 | 0.00 | 0.00 | 0.00 | 49 | 1055.8 | |
| 20260509202034 | 13 | 0.0 | 0.0 | 0.00 | 0.00 | 0.00 | 47 | 1055.8 | |
| 20260509201023 | 14 | 0.0 | 0.0 | 0.00 | 0.00 | 0.00 | 46 | 1055.6 | |
| 20260509200035 | 15 | 0.0 | 0.0 | 0.00 | 0.00 | 0.00 | 45 | 1055.6 | |
| 20260509195045 | 15 | 0.0 | 3.2 | 0.00 | 0.00 | 0.00 | 44 | 1055.4 | |
| 20260509194132 | 15 | 0.0 | 0.0 | 0.00 | 0.00 | 0.00 | 43 | 1055.4 | |
| 20260509193319 | 16 | 0.0 | 0.0 | 0.00 | 0.00 | 0.00 | 40 | 1055.2 | |
| 20260509192239 | 16 | 0.0 | 0.0 | 0.00 | 0.00 | 0.00 | 39 | 1055.1 | |
| 20260509191034 | 16 | 0.0 | 0.0 | 0.00 | 0.00 | 0.00 | 39 | 1054.9 |